Weather

DAILY 7 DAY TOTAL
onrain

Note: Some stations are located near irrigated fields and may also report irrigation

Alliston Mount Forest Blyth Guelph Grand Bend Strathroy Woodstock Belmont Simcoe Leamington Chatham West Lorne






Grand Bend - Historical Weather Data
Date Max Temp (°C) Min Temp (°C) Avg Temp (°C) Rain (mm) 7Day Rain(mm) Total Rain(mm) Avg RH (%)
5/22/2019 19.0 4.0 12.5 0.8 9.0 46.8 73.3
5/21/2019 12.2 1.1 7.6 0.0 9.2 46.0 84.1
5/20/2019 15.5 4.6 10.9 0.0 9.2 46.0 86.9
5/19/2019 28.7 10.5 18.1 8.2 17.4 46.0 79.1
5/18/2019 19.5 4.0 11.9 0.0 9.8 37.8 75.7
5/17/2019 17.2 5.5 9.5 0.0 10.0 37.8 82.2
5/16/2019 22.7 2.7 14.4 0.0 10.8 37.8 68.0
5/15/2019 20.9 7.4 13.2 1.0 19.2 37.8 64.7
5/14/2019 16.7 5.0 10.2 0.0 18.2 36.8 69.7
5/13/2019 8.4 4.6 6.1 8.2 20.0 36.8 95.9
5/12/2019 11.1 6.2 8.2 0.6 11.8 28.6 81.9
5/11/2019 9.7 -0.5 5.3 0.2 11.2 28.0 85.7
5/10/2019 17.1 3.6 9.6 0.8 11.0 27.8 87.3
5/9/2019 22.0 8.9 15.6 8.4 12.8 27.0 71.5
5/8/2019 16.2 0.2 8.6 0.0 4.4 18.6 59.3
5/7/2019 6.8 3.0 5.0 1.8 18.6 18.6 87.1
5/6/2019 19.5 5.3 11.1 0.0 22.0 16.8 79.7
5/5/2019 19.6 0.0 10.3 0.0 26.6 16.8 74.3
5/4/2019 11.6 3.8 6.9 0.0 26.6 16.8 89.8
5/3/2019 6.3 3.9 4.8 2.6 26.6 16.8 99.5
5/2/2019 10.9 2.4 5.9 0.0 60.4 14.2 93.8
5/1/2019 18.8 5.3 10.3 14.2 62.0 14.2 91.1